| time (UTC) | temp F | wind direction | speed MPH | gust MPH | rain 1hr in | rain 24hr in | rain mn in | humidity % | barometer mb |
| 20260904011020 | 86 | 203 | 5.0 | 10.0 | 0.00 | 0.00 | 0.00 | 13 | 1002.6 |
| 20260904010520 | 86 | 246 | 5.0 | 10.0 | 0.00 | 0.00 | 0.00 | 13 | 1002.5 |
| 20260904010021 | 86 | 183 | 6.0 | 14.0 | 0.00 | 0.00 | 0.00 | 13 | 1002.6 |
| 20260904005520 | 86 | 203 | 7.0 | 15.0 | 0.00 | 0.00 | 0.00 | 13 | 1002.6 |
| 20260904005020 | 86 | 197 | 4.0 | 14.0 | 0.00 | 0.00 | 0.00 | 13 | 1002.7 |
| 20260904004519 | 87 | 201 | 5.0 | 14.0 | 0.00 | 0.00 | 0.00 | 13 | 1002.6 |
| 20260904004019 | 87 | 202 | 5.0 | 12.0 | 0.00 | 0.00 | 0.00 | 13 | 1002.7 |
| 20260904003519 | 87 | 193 | 7.0 | 12.0 | 0.00 | 0.00 | 0.00 | 12 | 1002.7 |
| 20260904003017 | 87 | 200 | 6.0 | 13.0 | 0.00 | 0.00 | 0.00 | 12 | 1002.7 |
| 20260904002517 | 87 | 192 | 6.0 | 11.0 | 0.00 | 0.00 | 0.00 | 13 | 1002.8 |
| 20260904002017 | 87 | 242 | 8.0 | 17.0 | 0.00 | 0.00 | 0.00 | 12 | 1002.8 |
| 20260904001517 | 87 | 192 | 9.0 | 17.0 | 0.00 | 0.00 | 0.00 | 12 | 1002.9 |
| 20260904001016 | 87 | 184 | 6.0 | 13.0 | 0.00 | 0.00 | 0.00 | 12 | 1002.9 |
| 20260904000516 | 87 | 200 | 7.0 | 13.0 | 0.00 | 0.00 | 0.00 | 13 | 1003.0 |
| 20260904000014 | 87 | 202 | 7.0 | 19.0 | 0.00 | 0.00 | 0.00 | 13 | 1003.1 |
| 20260903235514 | 87 | 209 | 7.0 | 19.0 | 0.00 | 0.00 | 0.00 | 13 | 1003.1 |
| 20260903235018 | 88 | 188 | 6.0 | 19.0 | 0.00 | 0.00 | 0.00 | 13 | 1003.2 |
| 20260903234514 | 88 | 277 | 4.0 | 12.0 | 0.00 | 0.00 | 0.00 | 13 | 1003.0 |
| 20260903234014 | 88 | 194 | 8.0 | 15.0 | 0.00 | 0.00 | 0.00 | 13 | 1003.2 |
| 20260903233514 | 88 | 215 | 7.0 | 15.0 | 0.00 | 0.00 | 0.00 | 13 | 1003.2 |
| 20260903233013 | 88 | 240 | 6.0 | 16.0 | 0.00 | 0.00 | 0.00 | 13 | 1003.2 |
| 20260903232514 | 88 | 179 | 8.0 | 16.0 | 0.00 | 0.00 | 0.00 | 13 | 1003.2 |
| 20260903232013 | 88 | 206 | 6.0 | 10.0 | 0.00 | 0.00 | 0.00 | 13 | 1003.2 |
| 20260903231512 | 89 | 269 | 5.0 | 13.0 | 0.00 | 0.00 | 0.00 | 13 | 1003.3 |
| 20260903231011 | 89 | 210 | 6.0 | 13.0 | 0.00 | 0.00 | 0.00 | 13 | 1003.3 |
| 20260903230511 | 89 | 188 | 5.0 | 14.0 | 0.00 | 0.00 | 0.00 | 13 | 1003.3 |
| 20260903230010 | 89 | 238 | 6.0 | 14.0 | 0.00 | 0.00 | 0.00 | 13 | 1003.4 |
| 20260903225511 | 89 | 225 | 5.0 | 12.0 | 0.00 | 0.00 | 0.00 | 13 | 1003.5 |
| 20260903225010 | 89 | 209 | 3.0 | 15.0 | 0.00 | 0.00 | 0.00 | 13 | 1003.4 |
| 20260903224509 | 89 | 233 | 5.0 | 15.0 | 0.00 | 0.00 | 0.00 | 13 | 1003.6 |
| 20260903224008 | 89 | 210 | 6.0 | 14.0 | 0.00 | 0.00 | 0.00 | 13 | 1003.6 |
| 20260903223510 | 89 | 217 | 5.0 | 14.0 | 0.00 | 0.00 | 0.00 | 13 | 1003.6 |
| 20260903223010 | 89 | 254 | 5.0 | 13.0 | 0.00 | 0.00 | 0.00 | 13 | 1003.7 |
| 20260903222506 | 89 | 224 | 5.0 | 13.0 | 0.00 | 0.00 | 0.00 | 13 | 1003.8 |
| 20260903222007 | 89 | 225 | 5.0 | 11.0 | 0.00 | 0.00 | 0.00 | 13 | 1003.9 |
| 20260903221507 | 89 | 243 | 6.0 | 14.0 | 0.00 | 0.00 | 0.00 | 13 | 1003.8 |
| 20260903221005 | 89 | 202 | 5.0 | 19.0 | 0.00 | 0.00 | 0.00 | 13 | 1003.9 |
| 20260903220505 | 89 | 234 | 5.0 | 19.0 | 0.00 | 0.00 | 0.00 | 13 | 1003.9 |
| 20260903220006 | 89 | 247 | 5.0 | 14.0 | 0.00 | 0.00 | 0.00 | 13 | 1003.9 |
| 20260903215505 | 89 | 246 | 6.0 | 14.0 | 0.00 | 0.00 | 0.00 | 13 | 1004.1 |
| 20260903215006 | 89 | 237 | 5.0 | 14.0 | 0.00 | 0.00 | 0.00 | 13 | 1004.0 |
| 20260903214504 | 89 | 233 | 4.0 | 14.0 | 0.00 | 0.00 | 0.00 | 13 | 1004.1 |
| 20260903214003 | 90 | 204 | 3.0 | 11.0 | 0.00 | 0.00 | 0.00 | 13 | 1004.1 |
| 20260903213503 | 90 | 234 | 4.0 | 12.0 | 0.00 | 0.00 | 0.00 | 13 | 1004.2 |
| 20260903213100 | 90 | 259 | 3.0 | 12.0 | 0.00 | 0.00 | 0.00 | 13 | 1004.3 |
| 20260903212600 | 89 | 150 | 6.0 | 11.0 | 0.00 | 0.00 | 0.00 | 13 | 1004.3 |
| 20260903212100 | 89 | 184 | 5.0 | 14.0 | 0.00 | 0.00 | 0.00 | 13 | 1004.3 |
| 20260903211615 | 89 | 255 | 5.0 | 14.0 | 0.00 | 0.00 | 0.00 | 13 | 1004.3 |
| 20260903211059 | 89 | 254 | 4.0 | 12.0 | 0.00 | 0.00 | 0.00 | 13 | 1004.3 |
| 20260903210559 | 89 | 230 | 6.0 | 12.0 | 0.00 | 0.00 | 0.00 | 13 | 1004.4 |
| 20260903210058 | 89 | 236 | 5.0 | 10.0 | 0.00 | 0.00 | 0.00 | 13 | 1004.4 |
| 20260903205557 | 89 | 211 | 5.0 | 10.0 | 0.00 | 0.00 | 0.00 | 13 | 1004.4 |
| 20260903205056 | 88 | 237 | 6.0 | 12.0 | 0.00 | 0.00 | 0.00 | 13 | 1004.3 |
| 20260903204602 | 89 | 255 | 6.0 | 14.0 | 0.00 | 0.00 | 0.00 | 13 | 1004.5 |
| 20260903204056 | 88 | 194 | 4.0 | 15.0 | 0.00 | 0.00 | 0.00 | 14 | 1004.5 |
| 20260903203554 | 89 | 188 | 4.0 | 12.0 | 0.00 | 0.00 | 0.00 | 13 | 1004.5 |
| 20260903203054 | 88 | 210 | 6.0 | 12.0 | 0.00 | 0.00 | 0.00 | 13 | 1004.6 |
| 20260903202554 | 89 | 207 | 5.0 | 14.0 | 0.00 | 0.00 | 0.00 | 13 | 1004.7 |
| 20260903202053 | 89 | 261 | 4.0 | 18.0 | 0.00 | 0.00 | 0.00 | 14 | 1004.6 |
| 20260903201552 | 88 | 219 | 7.0 | 18.0 | 0.00 | 0.00 | 0.00 | 14 | 1004.8 |
| 20260903201052 | 88 | 183 | 5.0 | 14.0 | 0.00 | 0.00 | 0.00 | 14 | 1004.9 |
| 20260903200550 | 88 | 239 | 5.0 | 12.0 | 0.00 | 0.00 | 0.00 | 13 | 1005.0 |
| 20260903200050 | 88 | 239 | 3.0 | 12.0 | 0.00 | 0.00 | 0.00 | 14 | 1005.0 |
| 20260903195549 | 87 | 188 | 3.0 | 15.0 | 0.00 | 0.00 | 0.00 | 14 | 1005.0 |
| 20260903195050 | 87 | 190 | 6.0 | 14.0 | 0.00 | 0.00 | 0.00 | 14 | 1005.1 |
| 20260903194552 | 87 | 197 | 5.0 | 14.0 | 0.00 | 0.00 | 0.00 | 13 | 1005.1 |
| 20260903194046 | 86 | 144 | 5.0 | 14.0 | 0.00 | 0.00 | 0.00 | 15 | 1005.3 |
| 20260903193546 | 87 | 138 | 7.0 | 17.0 | 0.00 | 0.00 | 0.00 | 15 | 1005.4 |
| 20260903193046 | 87 | 200 | 5.0 | 17.0 | 0.00 | 0.00 | 0.00 | 14 | 1005.3 |
| 20260903192545 | 86 | 215 | 3.0 | 14.0 | 0.00 | 0.00 | 0.00 | 15 | 1005.5 |
| 20260903192046 | 86 | 182 | 4.0 | 14.0 | 0.00 | 0.00 | 0.00 | 14 | 1005.5 |
| 20260903191556 | 86 | 176 | 5.0 | 14.0 | 0.00 | 0.00 | 0.00 | 14 | 1005.6 |
| 20260903191045 | 87 | 182 | 5.0 | 11.0 | 0.00 | 0.00 | 0.00 | 14 | 1005.6 |
| 20260903190546 | 87 | 184 | 4.0 | 11.0 | 0.00 | 0.00 | 0.00 | 14 | 1005.6 |
| 20260903190046 | 87 | 202 | 2.0 | 10.0 | 0.00 | 0.00 | 0.00 | 14 | 1005.6 |
| 20260903185544 | 87 | 206 | 5.0 | 10.0 | 0.00 | 0.00 | 0.00 | 14 | 1005.7 |
| 20260903185044 | 86 | 173 | 3.0 | 10.0 | 0.00 | 0.00 | 0.00 | 14 | 1005.8 |
| 20260903184543 | 86 | 183 | 5.0 | 10.0 | 0.00 | 0.00 | 0.00 | 14 | 1005.9 |
| 20260903184041 | 86 | 206 | 1.0 | 8.0 | 0.00 | 0.00 | 0.00 | 15 | 1005.9 |
| 20260903183541 | 86 | 175 | 2.0 | 6.0 | 0.00 | 0.00 | 0.00 | 14 | 1006.0 |
| 20260903183100 | 85 | 239 | 1.0 | 6.0 | 0.00 | 0.00 | 0.00 | 15 | 1006.1 |
| 20260903182538 | 84 | 143 | 1.0 | 13.0 | 0.00 | 0.00 | 0.00 | 16 | 1006.2 |
| 20260903182037 | 84 | 134 | 2.0 | 16.0 | 0.00 | 0.00 | 0.00 | 16 | 1006.2 |
| 20260903181535 | 83 | 80 | 7.0 | 16.0 | 0.00 | 0.00 | 0.00 | 17 | 1006.1 |
| 20260903181040 | 83 | 150 | 3.0 | 11.0 | 0.00 | 0.00 | 0.00 | 17 | 1006.3 |
| 20260903180534 | 82 | 61 | 2.0 | 11.0 | 0.00 | 0.00 | 0.00 | 17 | 1006.3 |
| 20260903180037 | 82 | 101 | 2.0 | 9.0 | 0.00 | 0.00 | 0.00 | 17 | 1006.5 |
| 20260903175534 | 82 | 144 | 1.0 | 5.0 | 0.00 | 0.00 | 0.00 | 17 | 1006.5 |
| 20260903175036 | 82 | 88 | 1.0 | 4.0 | 0.00 | 0.00 | 0.00 | 16 | 1006.4 |
| 20260903174534 | 82 | 67 | 0.0 | 7.0 | 0.00 | 0.00 | 0.00 | 16 | 1006.4 |
| 20260903174032 | 82 | 130 | 3.0 | 7.0 | 0.00 | 0.00 | 0.00 | 17 | 1006.5 |
| 20260903173533 | 82 | 103 | 0.0 | 4.0 | 0.00 | 0.00 | 0.00 | 17 | 1006.6 |
| 20260903173031 | 82 | 91 | 1.0 | 8.0 | 0.00 | 0.00 | 0.00 | 17 | 1006.6 |
| 20260903172532 | 80 | 154 | 0.0 | 10.0 | 0.00 | 0.00 | 0.00 | 17 | 1006.5 |
| 20260903172030 | 80 | 133 | 2.0 | 10.0 | 0.00 | 0.00 | 0.00 | 17 | 1006.5 |
| 20260903171529 | 80 | 148 | 2.0 | 9.0 | 0.00 | 0.00 | 0.00 | 18 | 1006.5 |
| 20260903171029 | 80 | 138 | 4.0 | 10.0 | 0.00 | 0.00 | 0.00 | 19 | 1006.6 |
| 20260903170529 | 79 | 175 | 2.0 | 10.0 | 0.00 | 0.00 | 0.00 | 19 | 1006.6 |
| 20260903170027 | 79 | 171 | 3.0 | 9.0 | 0.00 | 0.00 | 0.00 | 18 | 1006.6 |
| 20260903165528 | 79 | 138 | 2.0 | 9.0 | 0.00 | 0.00 | 0.00 | 19 | 1006.6 |
| 20260903165026 | 79 | 97 | 3.0 | 8.0 | 0.00 | 0.00 | 0.00 | 19 | 1006.6 |
| 20260903164525 | 79 | 175 | 1.0 | 5.0 | 0.00 | 0.00 | 0.00 | 21 | 1006.5 |
| 20260903164024 | 78 | 41 | 0.0 | 4.0 | 0.00 | 0.00 | 0.00 | 22 | 1006.5 |
| 20260903163523 | 78 | 49 | 1.0 | 3.0 | 0.00 | 0.00 | 0.00 | 21 | 1006.5 |
| 20260903163021 | 77 | 43 | 0.0 | 4.0 | 0.00 | 0.00 | 0.00 | 22 | 1006.5 |
| 20260903162522 | 77 | 35 | 1.0 | 3.0 | 0.00 | 0.00 | 0.00 | 22 | 1006.5 |
| 20260903162021 | 76 | 32 | 0.0 | 5.0 | 0.00 | 0.00 | 0.00 | 23 | 1006.6 |
| 20260903161531 | 75 | 26 | 1.0 | 6.0 | 0.00 | 0.00 | 0.00 | 23 | 1006.6 |
| 20260903161020 | 75 | 39 | 2.0 | 6.0 | 0.00 | 0.00 | 0.00 | 24 | 1006.6 |
| 20260903160521 | 76 | 40 | 2.0 | 6.0 | 0.00 | 0.00 | 0.00 | 23 | 1006.6 |
| 20260903160022 | 76 | 84 | 1.0 | 5.0 | 0.00 | 0.00 | 0.00 | 22 | 1006.5 |
| 20260903155524 | 75 | 71 | 2.0 | 5.0 | 0.00 | 0.00 | 0.00 | 24 | 1006.5 |
| 20260903155024 | 75 | 47 | 1.0 | 5.0 | 0.00 | 0.00 | 0.00 | 24 | 1006.5 |
| 20260903154522 | 76 | 53 | 2.0 | 7.0 | 0.00 | 0.00 | 0.00 | 23 | 1006.5 |
| 20260903154025 | 76 | 88 | 1.0 | 7.0 | 0.00 | 0.00 | 0.00 | 22 | 1006.4 |
| 20260903153519 | 75 | 79 | 1.0 | 4.0 | 0.00 | 0.00 | 0.00 | 22 | 1006.5 |
| 20260903153018 | 76 | 92 | 0.0 | 4.0 | 0.00 | 0.00 | 0.00 | 23 | 1006.5 |
| 20260903152518 | 75 | 202 | 0.0 | 2.0 | 0.00 | 0.00 | 0.00 | 23 | 1006.5 |
| 20260903152021 | 75 | 202 | 0.0 | 2.0 | 0.00 | 0.00 | 0.00 | 23 | 1006.4 |
| 20260903151517 | 74 | 202 | 0.0 | 2.0 | 0.00 | 0.00 | 0.00 | 24 | 1006.4 |
| 20260903151019 | 74 | 202 | 0.0 | 3.0 | 0.00 | 0.00 | 0.00 | 24 | 1006.4 |
| 20260903150518 | 74 | 202 | 0.0 | 3.0 | 0.00 | 0.00 | 0.00 | 24 | 1006.5 |
| 20260903150018 | 73 | 194 | 0.0 | 1.0 | 0.00 | 0.00 | 0.00 | 25 | 1006.4 |
| 20260903145520 | 73 | 194 | 0.0 | 3.0 | 0.00 | 0.00 | 0.00 | 25 | 1006.4 |
| 20260903145018 | 72 | 194 | 0.0 | 2.0 | 0.00 | 0.00 | 0.00 | 25 | 1006.4 |
| 20260903144521 | 72 | 191 | 0.0 | 3.0 | 0.00 | 0.00 | 0.00 | 25 | 1006.4 |
| 20260903144017 | 72 | 190 | 0.0 | 4.0 | 0.00 | 0.00 | 0.00 | 26 | 1006.4 |
| 20260903143516 | 71 | 190 | 0.0 | 4.0 | 0.00 | 0.00 | 0.00 | 26 | 1006.4 |
| 20260903143018 | 71 | 162 | 0.0 | 2.0 | 0.00 | 0.00 | 0.00 | 26 | 1006.4 |
| 20260903142515 | 71 | 161 | 0.0 | 5.0 | 0.00 | 0.00 | 0.00 | 27 | 1006.3 |
| 20260903142018 | 71 | 145 | 0.0 | 5.0 | 0.00 | 0.00 | 0.00 | 27 | 1006.3 |
| 20260903141513 | 71 | 169 | 0.0 | 2.0 | 0.00 | 0.00 | 0.00 | 27 | 1006.2 |
| 20260903141012 | 70 | 169 | 0.0 | 1.0 | 0.00 | 0.00 | 0.00 | 26 | 1006.2 |
| 20260903140512 | 70 | 169 | 0.0 | 4.0 | 0.00 | 0.00 | 0.00 | 27 | 1006.1 |
| 20260903140015 | 70 | 171 | 0.0 | 4.0 | 0.00 | 0.00 | 0.00 | 26 | 1006.1 |
| 20260903135511 | 71 | 275 | 0.0 | 2.0 | 0.00 | 0.00 | 0.00 | 26 | 1006.0 |
| 20260903135011 | 70 | 275 | 0.0 | 1.0 | 0.00 | 0.00 | 0.00 | 25 | 1005.9 |
| 20260903134511 | 70 | 275 | 0.0 | 0.0 | 0.00 | 0.00 | 0.00 | 25 | 1005.9 |
| 20260903134010 | 69 | 275 | 0.0 | 3.0 | 0.00 | 0.00 | 0.00 | 25 | 1005.8 |
| 20260903133510 | 69 | 274 | 0.0 | 3.0 | 0.00 | 0.00 | 0.00 | 24 | 1005.7 |
| 20260903133017 | 69 | 271 | 0.0 | 2.0 | 0.00 | 0.00 | 0.00 | 24 | 1005.7 |
| 20260903132509 | 70 | 271 | 0.0 | 0.0 | 0.00 | 0.00 | 0.00 | 23 | 1005.6 |
| 20260903132006 | 70 | 271 | 0.0 | 3.0 | 0.00 | 0.00 | 0.00 | 23 | 1005.5 |
| 20260903131507 | 71 | 271 | 0.0 | 3.0 | 0.00 | 0.00 | 0.00 | 22 | 1005.5 |
| 20260903131005 | 72 | 200 | 0.0 | 3.0 | 0.00 | 0.00 | 0.00 | 21 | 1005.5 |
| 20260903130505 | 72 | 201 | 0.0 | 6.0 | 0.00 | 0.00 | 0.00 | 21 | 1005.4 |
| 20260903130006 | 73 | 198 | 2.0 | 6.0 | 0.00 | 0.00 | 0.00 | 20 | 1005.4 |
| 20260903125505 | 72 | 190 | 2.0 | 6.0 | 0.00 | 0.00 | 0.00 | 21 | 1005.4 |
| 20260903125005 | 72 | 192 | 2.0 | 9.0 | 0.00 | 0.00 | 0.00 | 21 | 1005.5 |
| 20260903124503 | 72 | 193 | 3.0 | 9.0 | 0.00 | 0.00 | 0.00 | 21 | 1005.4 |
| 20260903124005 | 72 | 182 | 4.0 | 8.0 | 0.00 | 0.00 | 0.00 | 22 | 1005.4 |
| 20260903123506 | 72 | 189 | 3.0 | 7.0 | 0.00 | 0.00 | 0.00 | 22 | 1005.3 |
| 20260903123005 | 71 | 191 | 2.0 | 7.0 | 0.00 | 0.00 | 0.00 | 22 | 1005.3 |
| 20260903122502 | 71 | 177 | 3.0 | 7.0 | 0.00 | 0.00 | 0.00 | 22 | 1005.2 |
| 20260903122002 | 71 | 184 | 3.0 | 6.0 | 0.00 | 0.00 | 0.00 | 22 | 1005.2 |
| 20260903121502 | 71 | 203 | 0.0 | 4.0 | 0.00 | 0.00 | 0.00 | 22 | 1005.2 |
| 20260903121002 | 71 | 204 | 0.0 | 5.0 | 0.00 | 0.00 | 0.00 | 22 | 1005.1 |
| 20260903120501 | 71 | 200 | 1.0 | 6.0 | 0.00 | 0.00 | 0.00 | 22 | 1005.1 |
| 20260903115600 | 71 | 198 | 2.0 | 7.0 | 0.00 | 0.00 | 0.00 | 21 | 1005.1 |
| 20260903115059 | 71 | 202 | 3.0 | 7.0 | 0.00 | 0.00 | 0.00 | 21 | 1005.2 |
| 20260903114601 | 72 | 180 | 1.0 | 7.0 | 0.00 | 0.00 | 0.00 | 21 | 1005.2 |
| 20260903114058 | 71 | 196 | 3.0 | 8.0 | 0.00 | 0.00 | 0.00 | 21 | 1005.2 |
| 20260903113601 | 72 | 187 | 3.0 | 8.0 | 0.00 | 0.00 | 0.00 | 21 | 1005.2 |
| 20260903113057 | 72 | 198 | 3.0 | 8.0 | 0.00 | 0.00 | 0.00 | 21 | 1005.2 |
| 20260903112557 | 72 | 208 | 3.0 | 8.0 | 0.00 | 0.00 | 0.00 | 21 | 1005.2 |
| 20260903112056 | 72 | 205 | 4.0 | 8.0 | 0.00 | 0.00 | 0.00 | 21 | 1005.3 |
| 20260903111555 | 72 | 202 | 1.0 | 6.0 | 0.00 | 0.00 | 0.00 | 20 | 1005.3 |
| 20260903111055 | 73 | 205 | 3.0 | 8.0 | 0.00 | 0.00 | 0.00 | 20 | 1005.4 |
| 20260903110557 | 72 | 232 | 2.0 | 8.0 | 0.00 | 0.00 | 0.00 | 20 | 1005.4 |
| 20260903110053 | 72 | 202 | 1.0 | 6.0 | 0.00 | 0.00 | 0.00 | 20 | 1005.5 |
| 20260903105557 | 73 | 209 | 1.0 | 6.0 | 0.00 | 0.00 | 0.00 | 20 | 1005.5 |
| 20260903105053 | 73 | 211 | 2.0 | 8.0 | 0.00 | 0.00 | 0.00 | 20 | 1005.6 |
| 20260903104555 | 73 | 198 | 3.0 | 8.0 | 0.00 | 0.00 | 0.00 | 20 | 1005.6 |
| 20260903104152 | 72 | 227 | 2.0 | 5.0 | 0.00 | 0.00 | 0.00 | 20 | 1005.7 |
| 20260903103551 | 73 | 204 | 1.0 | 7.0 | 0.00 | 0.00 | 0.00 | 21 | 1005.7 |
| 20260903103051 | 72 | 198 | 2.0 | 5.0 | 0.00 | 0.00 | 0.00 | 21 | 1005.7 |
| 20260903102552 | 72 | 184 | 1.0 | 5.0 | 0.00 | 0.00 | 0.00 | 22 | 1005.7 |
| 20260903102049 | 72 | 181 | 2.0 | 5.0 | 0.00 | 0.00 | 0.00 | 21 | 1005.7 |
| 20260903101551 | 72 | 180 | 3.0 | 6.0 | 0.00 | 0.00 | 0.00 | 21 | 1005.8 |
| 20260903101048 | 73 | 178 | 3.0 | 6.0 | 0.00 | 0.00 | 0.00 | 21 | 1005.8 |
| 20260903100548 | 73 | 188 | 2.0 | 5.0 | 0.00 | 0.00 | 0.00 | 21 | 1005.8 |
| 20260903100046 | 73 | 201 | 0.0 | 3.0 | 0.00 | 0.00 | 0.00 | 20 | 1005.9 |
| 20260903095545 | 73 | 201 | 1.0 | 5.0 | 0.00 | 0.00 | 0.00 | 20 | 1005.8 |
| 20260903095044 | 74 | 215 | 0.0 | 5.0 | 0.00 | 0.00 | 0.00 | 20 | 1005.8 |
| 20260903094546 | 74 | 248 | 0.0 | 5.0 | 0.00 | 0.00 | 0.00 | 20 | 1005.9 |
| 20260903094043 | 74 | 269 | 1.0 | 12.0 | 0.00 | 0.00 | 0.00 | 20 | 1005.7 |
| 20260903093544 | 74 | 252 | 0.0 | 12.0 | 0.00 | 0.00 | 0.00 | 20 | 1005.8 |
| 20260903093049 | 74 | 240 | 1.0 | 4.0 | 0.00 | 0.00 | 0.00 | 20 | 1005.8 |
| 20260903092541 | 74 | 219 | 1.0 | 7.0 | 0.00 | 0.00 | 0.00 | 20 | 1005.8 |
| 20260903092041 | 75 | 213 | 2.0 | 7.0 | 0.00 | 0.00 | 0.00 | 19 | 1005.8 |
| 20260903091553 | 74 | 226 | 1.0 | 8.0 | 0.00 | 0.00 | 0.00 | 19 | 1005.9 |
| 20260903091044 | 74 | 254 | 0.0 | 7.0 | 0.00 | 0.00 | 0.00 | 19 | 1005.9 |
| 20260903090539 | 75 | 260 | 1.0 | 7.0 | 0.00 | 0.00 | 0.00 | 19 | 1006.0 |
| 20260903090038 | 75 | 252 | 1.0 | 7.0 | 0.00 | 0.00 | 0.00 | 19 | 1006.0 |
| 20260903085539 | 75 | 244 | 1.0 | 7.0 | 0.00 | 0.00 | 0.00 | 18 | 1006.0 |
| 20260903085037 | 75 | 246 | 1.0 | 7.0 | 0.00 | 0.00 | 0.00 | 18 | 1006.0 |
| 20260903084537 | 75 | 240 | 1.0 | 5.0 | 0.00 | 0.00 | 0.00 | 17 | 1006.0 |
| 20260903084036 | 75 | 230 | 1.0 | 4.0 | 0.00 | 0.00 | 0.00 | 17 | 1006.0 |
| 20260903083538 | 75 | 232 | 1.0 | 4.0 | 0.00 | 0.00 | 0.00 | 17 | 1006.0 |
| 20260903083035 | 75 | 238 | 1.0 | 5.0 | 0.00 | 0.00 | 0.00 | 17 | 1006.0 |
| 20260903082534 | 75 | 238 | 1.0 | 7.0 | 0.00 | 0.00 | 0.00 | 17 | 1006.0 |
| 20260903082034 | 75 | 226 | 1.0 | 7.0 | 0.00 | 0.00 | 0.00 | 17 | 1006.0 |
| 20260903081534 | 75 | 230 | 1.0 | 4.0 | 0.00 | 0.00 | 0.00 | 17 | 1005.9 |
| 20260903081036 | 75 | 230 | 1.0 | 3.0 | 0.00 | 0.00 | 0.00 | 17 | 1006.0 |
| 20260903080534 | 75 | 234 | 0.0 | 5.0 | 0.00 | 0.00 | 0.00 | 17 | 1005.9 |
| 20260903080033 | 76 | 263 | 0.0 | 9.0 | 0.00 | 0.00 | 0.00 | 16 | 1005.9 |
| 20260903075532 | 76 | 267 | 2.0 | 9.0 | 0.00 | 0.00 | 0.00 | 16 | 1005.8 |
| 20260903075032 | 76 | 243 | 2.0 | 8.0 | 0.00 | 0.00 | 0.00 | 16 | 1005.9 |
| 20260903074529 | 76 | 239 | 2.0 | 12.0 | 0.00 | 0.00 | 0.00 | 15 | 1005.9 |
| 20260903074028 | 77 | 266 | 1.0 | 12.0 | 0.00 | 0.00 | 0.00 | 15 | 1005.9 |
| 20260903073528 | 77 | 249 | 3.0 | 11.0 | 0.00 | 0.00 | 0.00 | 15 | 1005.8 |
| 20260903073042 | 77 | 263 | 3.0 | 10.0 | 0.00 | 0.00 | 0.00 | 14 | 1005.8 |
| 20260903072525 | 77 | 276 | 3.0 | 11.0 | 0.00 | 0.00 | 0.00 | 14 | 1005.8 |
| 20260903072025 | 77 | 250 | 3.0 | 12.0 | 0.00 | 0.00 | 0.00 | 14 | 1005.9 |
| 20260903071524 | 77 | 309 | 2.0 | 11.0 | 0.00 | 0.00 | 0.00 | 13 | 1005.8 |
| 20260903071024 | 77 | 272 | 2.0 | 8.0 | 0.00 | 0.00 | 0.00 | 13 | 1005.9 |
| 20260903070525 | 77 | 229 | 2.0 | 11.0 | 0.00 | 0.00 | 0.00 | 13 | 1006.0 |
| 20260903070020 | 77 | 238 | 2.0 | 7.0 | 0.00 | 0.00 | 0.00 | 12 | 1006.0 |
| 20260903065520 | 77 | 250 | 1.0 | 8.0 | 0.00 | 0.00 | 0.00 | 12 | 1005.9 |
| 20260903065019 | 77 | 256 | 2.0 | 8.0 | 0.00 | 0.00 | 0.00 | 12 | 1005.9 |
| 20260903064519 | 77 | 243 | 2.0 | 6.0 | 0.00 | 0.00 | 0.00 | 11 | 1005.9 |
| 20260903064020 | 77 | 230 | 2.0 | 6.0 | 0.00 | 0.00 | 0.00 | 12 | 1006.0 |
| 20260903063520 | 77 | 242 | 2.0 | 7.0 | 0.00 | 0.00 | 0.00 | 12 | 1006.0 |
| 20260903063019 | 78 | 210 | 2.0 | 9.0 | 0.00 | 0.00 | 0.00 | 12 | 1006.1 |
| 20260903062522 | 77 | 244 | 3.0 | 9.0 | 0.00 | 0.00 | 0.00 | 11 | 1006.0 |
| 20260903062019 | 77 | 202 | 1.0 | 4.0 | 0.00 | 0.00 | 0.00 | 11 | 1005.9 |
| 20260903061519 | 77 | 186 | 0.0 | 5.0 | 0.00 | 0.00 | 0.00 | 11 | 1006.0 |
| 20260903061019 | 78 | 186 | 2.0 | 5.0 | 0.00 | 0.00 | 0.00 | 10 | 1006.1 |
| 20260903060518 | 78 | 193 | 0.0 | 6.0 | 0.00 | 0.00 | 0.00 | 10 | 1006.1 |
| 20260903060019 | 78 | 190 | 2.0 | 6.0 | 0.00 | 0.00 | 0.00 | 10 | 1006.0 |
| 20260903055520 | 77 | 173 | 0.0 | 4.0 | 0.00 | 0.00 | 0.00 | 10 | 1006.0 |
| 20260903055018 | 78 | 190 | 0.0 | 3.0 | 0.00 | 0.00 | 0.00 | 11 | 1005.9 |
| 20260903054518 | 78 | 195 | 0.0 | 3.0 | 0.00 | 0.00 | 0.00 | 10 | 1005.9 |
| 20260903054020 | 79 | 198 | 0.0 | 4.0 | 0.00 | 0.00 | 0.00 | 10 | 1006.0 |
| 20260903053517 | 79 | 233 | 0.0 | 4.0 | 0.00 | 0.00 | 0.00 | 10 | 1006.0 |
| 20260903053018 | 79 | 186 | 2.0 | 5.0 | 0.00 | 0.00 | 0.00 | 10 | 1006.0 |
| 20260903052517 | 79 | 184 | 1.0 | 5.0 | 0.00 | 0.00 | 0.00 | 9 | 1006.0 |
| 20260903052017 | 79 | 180 | 0.0 | 2.0 | 0.00 | 0.00 | 0.00 | 9 | 1006.0 |
| 20260903051516 | 79 | 188 | 0.0 | 2.0 | 0.00 | 0.00 | 0.00 | 9 | 1006.0 |
| 20260903051016 | 79 | 188 | 0.0 | 3.0 | 0.00 | 0.00 | 0.00 | 9 | 1006.0 |
| 20260903050516 | 79 | 188 | 1.0 | 5.0 | 0.00 | 0.00 | 0.00 | 9 | 1006.0 |
| 20260903050017 | 79 | 209 | 2.0 | 5.0 | 0.00 | 0.00 | 0.00 | 9 | 1006.0 |
| 20260903045517 | 79 | 186 | 0.0 | 6.0 | 0.00 | 0.00 | 0.00 | 9 | 1005.9 |
| 20260903045016 | 79 | 190 | 3.0 | 9.0 | 0.00 | 0.00 | 0.00 | 10 | 1005.9 |
| 20260903044517 | 79 | 142 | 1.0 | 9.0 | 0.00 | 0.00 | 0.00 | 10 | 1005.9 |
| 20260903044016 | 79 | 113 | 0.0 | 3.0 | 0.00 | 0.00 | 0.00 | 10 | 1005.9 |
| 20260903043516 | 79 | 113 | 0.0 | 4.0 | 0.00 | 0.00 | 0.00 | 10 | 1005.8 |
| 20260903043015 | 80 | 123 | 1.0 | 5.0 | 0.00 | 0.00 | 0.00 | 9 | 1005.8 |
| 20260903042515 | 80 | 159 | 0.0 | 5.0 | 0.00 | 0.00 | 0.00 | 9 | 1005.8 |
| 20260903042015 | 80 | 35 | 0.0 | 4.0 | 0.00 | 0.00 | 0.00 | 8 | 1005.7 |
| 20260903041515 | 80 | 211 | 0.0 | 11.0 | 0.00 | 0.00 | 0.00 | 9 | 1005.5 |
| 20260903041015 | 81 | 211 | 4.0 | 11.0 | 0.00 | 0.00 | 0.00 | 8 | 1005.4 |
| 20260903040514 | 81 | 205 | 5.0 | 14.0 | 0.00 | 0.00 | 0.00 | 8 | 1005.2 |
| 20260903040021 | 81 | 239 | 5.0 | 14.0 | 0.00 | 0.00 | 0.00 | 8 | 1005.1 |
| 20260903035515 | 81 | 252 | 6.0 | 18.0 | 0.00 | 0.00 | 0.00 | 8 | 1005.0 |
| 20260903035014 | 81 | 246 | 6.0 | 14.0 | 0.00 | 0.00 | 0.00 | 8 | 1004.8 |
| 20260903034613 | 81 | 220 | 7.0 | 14.0 | 0.00 | 0.00 | 0.00 | 8 | 1004.7 |
| 20260903034012 | 81 | 232 | 6.0 | 13.0 | 0.00 | 0.00 | 0.00 | 8 | 1004.7 |
| 20260903033515 | 82 | 213 | 6.0 | 15.0 | 0.00 | 0.00 | 0.00 | 8 | 1004.7 |
| 20260903033012 | 81 | 216 | 8.0 | 13.0 | 0.00 | 0.00 | 0.00 | 8 | 1004.7 |
| 20260903032512 | 81 | 261 | 5.0 | 14.0 | 0.00 | 0.00 | 0.00 | 8 | 1004.9 |
| 20260903032010 | 81 | 216 | 6.0 | 14.0 | 0.00 | 0.00 | 0.00 | 8 | 1005.0 |
| 20260903031510 | 82 | 213 | 5.0 | 13.0 | 0.00 | 0.00 | 0.00 | 7 | 1005.1 |
| 20260903031009 | 82 | 225 | 5.0 | 13.0 | 0.00 | 0.00 | 0.00 | 7 | 1005.1 |
| 20260903030509 | 82 | 218 | 5.0 | 9.0 | 0.00 | 0.00 | 0.00 | 7 | 1005.2 |
| 20260903030009 | 82 | 245 | 3.0 | 9.0 | 0.00 | 0.00 | 0.00 | 7 | 1005.2 |
| 20260903025508 | 82 | 219 | 4.0 | 9.0 | 0.00 | 0.00 | 0.00 | 7 | 1005.2 |
| 20260903025008 | 82 | 225 | 4.0 | 10.0 | 0.00 | 0.00 | 0.00 | 7 | 1005.2 |
| 20260903024508 | 82 | 218 | 5.0 | 10.0 | 0.00 | 0.00 | 0.00 | 7 | 1005.2 |
| 20260903024008 | 83 | 242 | 5.0 | 10.0 | 0.00 | 0.00 | 0.00 | 7 | 1005.2 |
| 20260903023507 | 83 | 240 | 3.0 | 10.0 | 0.00 | 0.00 | 0.00 | 7 | 1005.2 |
| 20260903023007 | 83 | 222 | 5.0 | 10.0 | 0.00 | 0.00 | 0.00 | 7 | 1005.2 |
| 20260903022511 | 83 | 215 | 4.0 | 11.0 | 0.00 | 0.00 | 0.00 | 7 | 1005.3 |
| 20260903022006 | 83 | 207 | 4.0 | 10.0 | 0.00 | 0.00 | 0.00 | 6 | 1005.3 |
| 20260903021607 | 83 | 260 | 2.0 | 12.0 | 0.00 | 0.00 | 0.00 | 6 | 1005.4 |
| 20260903021006 | 83 | 248 | 5.0 | 13.0 | 0.00 | 0.00 | 0.00 | 6 | 1005.5 |
| 20260903020506 | 83 | 238 | 5.0 | 10.0 | 0.00 | 0.00 | 0.00 | 6 | 1005.5 |
| 20260903020010 | 84 | 198 | 5.0 | 10.0 | 0.00 | 0.00 | 0.00 | 6 | 1005.5 |
| 20260903015505 | 84 | 221 | 2.0 | 10.0 | 0.00 | 0.00 | 0.00 | 6 | 1005.5 |
| 20260903015005 | 84 | 242 | 4.0 | 10.0 | 0.00 | 0.00 | 0.00 | 6 | 1005.5 |
| 20260903014505 | 84 | 214 | 3.0 | 7.0 | 0.00 | 0.00 | 0.00 | 6 | 1005.5 |
| 20260903014006 | 84 | 219 | 2.0 | 6.0 | 0.00 | 0.00 | 0.00 | 6 | 1005.6 |
| 20260903013505 | 84 | 221 | 1.0 | 5.0 | 0.00 | 0.00 | 0.00 | 6 | 1005.6 |
| 20260903013005 | 85 | 213 | 1.0 | 5.0 | 0.00 | 0.00 | 0.00 | 6 | 1005.7 |
| 20260903012504 | 85 | 231 | 0.0 | 9.0 | 0.00 | 0.00 | 0.00 | 5 | 1005.7 |
| 20260903012004 | 86 | 242 | 4.0 | 10.0 | 0.00 | 0.00 | 0.00 | 5 | 1005.7 |
| 20260903011509 | 86 | 233 | 3.0 | 10.0 | 0.00 | 0.00 | 0.00 | 5 | 1005.7 |